Weather History for Farmington, MO

Change the Weather History Date:

Monday, December 3, 2012

  Actual Average Record
Temperature  
Mean Temperature 64 °F -  
Max Temperature 69 °F 47 °F 71 °F (1998)
Min Temperature 60 °F 31 °F 19 °F (2000)
Growing Degree Days 14 (Base 50)    
Moisture  
Dew Point 56 °F    
Average Humidity 78    
Maximum Humidity 88    
Minimum Humidity 60    
Precipitation  
Precipitation 0.00 in - - ()
Sea Level Pressure  
Sea Level Pressure 30.02 in    
Wind  
Wind Speed 14 mph (South)    
Max Wind Speed 24 mph    
Max Gust Speed 32 mph    
Visibility 10 miles    
Events      
Averages and records for this station are not official NWS values.
T = Trace of Precipitation, MM = Missing Value Source: NWS Daily Summary

Daily Weather History Graph

Daily Weather History Graph

Search for Another Location

Airport:

Trip Planner

Search our weather history database for the weather conditions in past years. The results will help you decide how hot, cold, wet, or windy it might be!

Date:

Astronomy

Dec. 03, 2012 Rise Set
Actual Time 7:00 AM CST 4:42 PM CST
Civil Twilight 6:31 AM CST 5:11 PM CST
Nautical Twilight 5:59 AM CST 5:44 PM CST
Astronomical Twilight 5:27 AM CST 6:16 PM CST
Moon 9:26 PM CST (12/3) 10:26 AM CST (12/3)
Length of Visible Light 10h 40m
Length of Day
9h 42m
Waning Gibbous, 78% of the Moon is Illuminated
Dec 3
Waning Gibbous
Dec 6
Last Quarter
Dec 13
New
Dec 19
First Quarter
Dec 28
Full

Hourly Weather History & Observations

Time (CST) Temp. Dew Point Humidity Pressure Visibility Wind Dir Wind Speed Gust Speed Precip Events Conditions
12:15 AM 62.6 °F 59.0 °F 88% 30.07 in 10.0 mi South 13.8 mph - N/A   Overcast
12:35 AM 62.6 °F 57.2 °F 82% 30.07 in 10.0 mi South 15.0 mph - N/A   Overcast
12:55 AM 62.6 °F 59.0 °F 88% 30.07 in 10.0 mi South 13.8 mph - N/A   Overcast
1:15 AM 64.4 °F 59.0 °F 83% 30.08 in 10.0 mi South 15.0 mph - N/A   Overcast
1:35 AM 64.4 °F 59.0 °F 83% 30.07 in 10.0 mi South 12.7 mph - N/A   Overcast
1:55 AM 62.6 °F 57.2 °F 82% 30.07 in 10.0 mi South 11.5 mph 18.4 mph N/A   Overcast
2:15 AM 62.6 °F 59.0 °F 88% 30.08 in 10.0 mi South 12.7 mph - N/A   Overcast
2:35 AM 64.4 °F 59.0 °F 83% 30.08 in 10.0 mi South 8.1 mph - N/A   Overcast
2:55 AM 62.6 °F 59.0 °F 88% 30.08 in 10.0 mi South 9.2 mph - N/A   Overcast
3:15 AM 62.6 °F 59.0 °F 88% 30.07 in 10.0 mi South 11.5 mph - N/A   Overcast
3:35 AM 62.6 °F 59.0 °F 88% 30.07 in 10.0 mi South 11.5 mph 18.4 mph N/A   Overcast
3:55 AM 62.6 °F 59.0 °F 88% 30.06 in 10.0 mi South 10.4 mph - N/A   Overcast
4:15 AM 62.6 °F 59.0 °F 88% 30.06 in 10.0 mi South 9.2 mph - N/A   Overcast
4:35 AM 62.6 °F 59.0 °F 88% 30.06 in 10.0 mi South 9.2 mph - N/A   Overcast
4:55 AM 62.6 °F 59.0 °F 88% 30.05 in 10.0 mi South 10.4 mph - N/A   Overcast
5:15 AM 62.6 °F 59.0 °F 88% 30.05 in 10.0 mi South 12.7 mph - N/A   Overcast
5:35 AM 62.6 °F 59.0 °F 88% 30.05 in 10.0 mi South 12.7 mph 19.6 mph N/A   Overcast
5:55 AM 62.6 °F 59.0 °F 88% 30.05 in 10.0 mi South 10.4 mph 16.1 mph N/A   Overcast
6:15 AM 62.6 °F 57.2 °F 82% 30.05 in 10.0 mi South 9.2 mph - N/A   Mostly Cloudy
6:35 AM 60.8 °F 57.2 °F 88% 30.04 in 10.0 mi South 10.4 mph - N/A   Mostly Cloudy
6:55 AM 60.8 °F 57.2 °F 88% 30.05 in 10.0 mi South 12.7 mph - N/A   Overcast
7:15 AM 60.8 °F 57.2 °F 88% 30.05 in 10.0 mi South 13.8 mph - N/A   Overcast
7:35 AM 60.8 °F 57.2 °F 88% 30.05 in 10.0 mi South 16.1 mph 20.7 mph N/A   Overcast
7:55 AM 60.8 °F 57.2 °F 88% 30.05 in 10.0 mi South 15.0 mph - N/A   Overcast
8:15 AM 60.8 °F 57.2 °F 88% 30.04 in 10.0 mi South 13.8 mph 19.6 mph N/A   Overcast
8:35 AM 60.8 °F 57.2 °F 88% 30.05 in 10.0 mi South 11.5 mph - N/A   Overcast
8:55 AM 60.8 °F 57.2 °F 88% 30.05 in 10.0 mi South 12.7 mph 18.4 mph N/A   Overcast
9:15 AM 60.8 °F 57.2 °F 88% 30.05 in 10.0 mi South 13.8 mph - N/A   Overcast
9:35 AM 60.8 °F 57.2 °F 88% 30.05 in 10.0 mi South 13.8 mph 19.6 mph N/A   Overcast
9:55 AM 62.6 °F 57.2 °F 82% 30.05 in 10.0 mi South 11.5 mph 20.7 mph N/A   Overcast
10:15 AM 62.6 °F 57.2 °F 82% 30.05 in 10.0 mi South 16.1 mph 21.9 mph N/A   Overcast
10:35 AM 62.6 °F 57.2 °F 82% 30.06 in 10.0 mi South 15.0 mph 19.6 mph N/A   Overcast
10:55 AM 62.6 °F 57.2 °F 82% 30.05 in 10.0 mi South 11.5 mph - N/A   Overcast
11:15 AM 64.4 °F 55.4 °F 73% 30.05 in 10.0 mi South 11.5 mph 21.9 mph N/A   Overcast
11:35 AM 66.2 °F 55.4 °F 68% 30.03 in 10.0 mi SSW 19.6 mph 27.6 mph N/A   Overcast
11:55 AM 66.2 °F 55.4 °F 68% 30.02 in 10.0 mi SSW 20.7 mph 29.9 mph N/A   Mostly Cloudy
12:15 PM 68.0 °F 55.4 °F 64% 30.01 in 10.0 mi South 20.7 mph 27.6 mph N/A   Scattered Clouds
12:35 PM 68.0 °F 55.4 °F 64% 29.99 in 10.0 mi South 19.6 mph 28.8 mph N/A   Scattered Clouds
1:15 PM 68.0 °F 55.4 °F 64% 29.97 in 10.0 mi South 24.2 mph 32.2 mph N/A   Scattered Clouds
1:35 PM 69.8 °F 55.4 °F 60% 29.98 in 10.0 mi South 21.9 mph 28.8 mph N/A   Scattered Clouds
1:55 PM 66.2 °F 55.4 °F 68% 29.97 in 10.0 mi South 23.0 mph 28.8 mph N/A   Scattered Clouds
2:15 PM 69.8 °F 55.4 °F 60% 29.96 in 10.0 mi South 18.4 mph 28.8 mph N/A   Partly Cloudy
2:35 PM 69.8 °F 55.4 °F 60% 29.96 in 10.0 mi South 21.9 mph 29.9 mph N/A   Mostly Cloudy
2:55 PM 69.8 °F 55.4 °F 60% 29.96 in 10.0 mi South 20.7 mph 25.3 mph N/A   Mostly Cloudy
3:15 PM 69.8 °F 55.4 °F 60% 29.96 in 10.0 mi South 17.3 mph 27.6 mph N/A   Mostly Cloudy
3:35 PM 68.0 °F 55.4 °F 64% 29.96 in 10.0 mi South 21.9 mph 28.8 mph N/A   Scattered Clouds
3:55 PM 66.2 °F 55.4 °F 68% 29.97 in 10.0 mi South 19.6 mph 26.5 mph N/A   Partly Cloudy
4:15 PM 66.2 °F 55.4 °F 68% 29.97 in 10.0 mi South 17.3 mph 23.0 mph N/A   Partly Cloudy
4:35 PM 64.4 °F 55.4 °F 73% 29.98 in 10.0 mi South 17.3 mph 23.0 mph N/A   Partly Cloudy
4:55 PM 64.4 °F 55.4 °F 73% 29.97 in 10.0 mi South 15.0 mph 20.7 mph N/A   Clear
5:15 PM 64.4 °F 55.4 °F 73% 29.98 in 10.0 mi South 13.8 mph 20.7 mph N/A   Clear
5:35 PM 64.4 °F 55.4 °F 73% 29.98 in 10.0 mi South 16.1 mph 21.9 mph N/A   Partly Cloudy
5:55 PM 62.6 °F 55.4 °F 77% 29.98 in 10.0 mi South 15.0 mph 26.5 mph N/A   Clear
6:15 PM 62.6 °F 55.4 °F 77% 29.98 in 10.0 mi South 17.3 mph 29.9 mph N/A   Clear
6:35 PM 62.6 °F 55.4 °F 77% 29.99 in 10.0 mi South 13.8 mph 21.9 mph N/A   Partly Cloudy
6:55 PM 62.6 °F 55.4 °F 77% 30.01 in 10.0 mi SSW 10.4 mph 17.3 mph N/A   Scattered Clouds
7:15 PM 64.4 °F 55.4 °F 73% 30.02 in 10.0 mi South 11.5 mph 17.3 mph N/A   Mostly Cloudy
7:35 PM 62.6 °F 53.6 °F 72% 30.02 in 10.0 mi SSW 10.4 mph - N/A   Mostly Cloudy
7:55 PM 62.6 °F 53.6 °F 72% 30.03 in 10.0 mi SSW 9.2 mph - N/A   Clear
8:15 PM 62.6 °F 53.6 °F 72% 30.03 in 10.0 mi South 11.5 mph 17.3 mph N/A   Partly Cloudy
8:35 PM 62.6 °F 53.6 °F 72% 30.03 in 10.0 mi South 11.5 mph - N/A   Clear
8:55 PM 62.6 °F 53.6 °F 72% 30.03 in 10.0 mi South 15.0 mph 21.9 mph N/A   Mostly Cloudy
9:15 PM 62.6 °F 53.6 °F 72% 30.01 in 10.0 mi South 16.1 mph 20.7 mph N/A   Scattered Clouds
9:35 PM 62.6 °F 53.6 °F 72% 30.01 in 10.0 mi South 16.1 mph 20.7 mph N/A   Clear
9:55 PM 62.6 °F 53.6 °F 72% 30.00 in 10.0 mi South 17.3 mph 21.9 mph N/A   Clear
10:15 PM 62.6 °F 53.6 °F 72% 30.01 in 10.0 mi South 15.0 mph 20.7 mph N/A   Clear
10:35 PM 60.8 °F 53.6 °F 77% 30.01 in 10.0 mi South 15.0 mph - N/A   Clear
10:55 PM 60.8 °F 53.6 °F 77% 30.01 in 10.0 mi South 15.0 mph - N/A   Clear
11:15 PM 60.8 °F 53.6 °F 77% 30.00 in 10.0 mi South 15.0 mph - N/A   Clear
11:35 PM 60.8 °F 53.6 °F 77% 29.99 in 10.0 mi South 13.8 mph 23.0 mph N/A   Clear
11:55 PM 60.8 °F 53.6 °F 77% 29.99 in 10.0 mi South 12.7 mph 19.6 mph N/A   Clear